Regional Weather Roundup
Issued by NWS

Home | Current Version | Previous Version | Text Only | Print | Product List | Glossary On
Versions: 1 2 3 4 5 6 7 8 9 10 11 12 13 14 15 16 17 18 19 20 21 22 23 24 25 26 27 28 29 30 31 32 33 34 35 36 37 38 39 40 41 42 43 44 45 46 47 48 49 50
000
ASUS43 KDTX 280610
RWRMI
MICHIGAN HOURLY REGIONAL WEATHER ROUNDUP
NATIONAL WEATHER SERVICE DETROIT/PONTIAC MI
200 AM EDT TUE JUL 28 2015

NOTE: "FAIR" INDICATES FEW OR NO CLOUDS BELOW 12,000 FEET WITH NO
SIGNIFICANT WEATHER AND/OR OBSTRUCTION TO VISIBILITY.

MIZ047>049-052>055-059>063-066>070-074>076-081>083-280700-
SOUTHEAST LOWER MICHIGAN

CITY           SKY/WX    TMP DP  RH WIND       PRES   REMARKS
ADRIAN         CLEAR     65  62  90 CALM      30.05F
6HR MIN TEMP:  64; 6HR MAX TEMP:  82;

ALMA           CLEAR     66  65  96 CALM      30.05F
ANN ARBOR      CLEAR     63  62  97 CALM      30.05F FOG
BAD AXE        CLEAR     64  63  96 CALM      30.06S
DETROIT CITY   CLEAR     73  64  73 CALM      30.05F
6HR MIN TEMP:  73; 6HR MAX TEMP:  84;

DETROIT        MOCLDY    73  63  70 CALM      30.05S
6HR MIN TEMP:  73; 6HR MAX TEMP:  85;

FLINT          CLEAR     70  63  78 CALM      30.05S
6HR MIN TEMP:  66; 6HR MAX TEMP:  88;

GROSSE ILE     CLEAR     70  66  88 CALM      30.03S
HILLSDALE      CLEAR     64  64  99 E3        30.06F
6HR MIN TEMP:  64; 6HR MAX TEMP:  81;

HOWELL         CLEAR     67  64  89 CALM      30.05F
6HR MIN TEMP:  67; 6HR MAX TEMP:  83;


CITY           SKY/WX    TMP DP  RH WIND       PRES   REMARKS
JACKSON        CLEAR     66  64  93 CALM      30.06S
6HR MIN TEMP:  65; 6HR MAX TEMP:  83;

LAMBERTVILLE   CLEAR     67  64  89 CALM      30.04F
6HR MIN TEMP:  67; 6HR MAX TEMP:  82;

LANSING        CLEAR     68  65  90 CALM      30.05F
6HR MIN TEMP:  67; 6HR MAX TEMP:  82;

LAPEER         NOT AVBL
MASON          CLEAR     63  62  96 CALM      30.06S
MONROE         CLEAR     64  64  97 CALM      30.04S
MT. CLEMENS    CLEAR     69  64  84 N2        30.03F
6HR MIN TEMP:  68; 6HR MAX TEMP:  82;

PONTIAC        CLEAR     69  62  78 CALM      30.05F
6HR MIN TEMP:  68; 6HR MAX TEMP:  86;

PORT HOPE        N/A     69  66  90 CALM      30.03S
6HR MIN TEMP:  68; 6HR MAX TEMP:  76;

PORT HURON     CLEAR     61  61 100 CALM      30.04F
TRI CITIES     CLEAR     74  64  71 SW5       30.04F
6HR MIN TEMP:  73; 6HR MAX TEMP:  87;

YPSILANTI      CLEAR     70  64  81 CALM      30.06S
6HR MIN TEMP:  69; 6HR MAX TEMP:  86;

$$
MIZ043>046-050>051-056>058-064>065-071>073-077>080-280700-
SOUTHWEST LOWER MICHIGAN

CITY           SKY/WX    TMP DP  RH WIND       PRES   REMARKS
BATTLE CREEK   PTCLDY    71  64  78 CALM      30.05F
6HR MIN TEMP:  69; 6HR MAX TEMP:  85;

BENTON HARBOR  PTCLDY    65  63  93 E3        30.02S FOG
6HR MIN TEMP:  65; 6HR MAX TEMP:  80;

BIG RAPIDS     CLEAR     66  62  87 CALM      30.06S
6HR MIN TEMP:  66; 6HR MAX TEMP:  83;

COLDWATER      CLEAR     65  64  96 CALM      30.04F
6HR MIN TEMP:  62; 6HR MAX TEMP:  79;

HOLLAND        PTCLDY    68  65  90 CALM      30.03F
6HR MIN TEMP:  67; 6HR MAX TEMP:  85;

GRAND RAPIDS   PTCLDY    71  67  87 NE5       30.04F
6HR MIN TEMP:  70; 6HR MAX TEMP:  85;

KALAMAZOO      PTCLDY    69  64  84 CALM      30.05S
6HR MIN TEMP:  67; 6HR MAX TEMP:  85;

MARSHALL       CLEAR     64  63  96 CALM      30.05F
MUSKEGON       PTCLDY    71  62  73 CALM      30.03F
6HR MIN TEMP:  69; 6HR MAX TEMP:  84;

$$
MIZ016>042-280700-
NORTHERN LOWER MICHIGAN

CITY           SKY/WX    TMP DP  RH WIND       PRES   REMARKS
ALPENA         CLEAR     64  61  90 CALM      30.05S
6HR MIN TEMP:  63; 6HR MAX TEMP:  83;

BEAVER ISLAND  CLEAR     62  60  93 CALM      30.03S
6HR MIN TEMP:  62; 6HR MAX TEMP:  77;

BELLAIRE       CLEAR     60  59  94 CALM      30.05S
6HR MIN TEMP:  60; 6HR MAX TEMP:  82;

CADILLAC       CLEAR     60  58  93 NW3       30.08S
CHARLEVOIX     CLEAR     65  60  84 S6        30.07S
6HR MIN TEMP:  64; 6HR MAX TEMP:  78;

FRANKFORT      CLEAR     61  57  87 CALM      30.04S
GAYLORD        CLEAR     63  60  90 CALM      30.08S
6HR MIN TEMP:  63; 6HR MAX TEMP:  85;

GRAYLING       CLEAR     61  59  93 CALM      30.08S
6HR MIN TEMP:  61; 6HR MAX TEMP:  86;

HARBOR SPRINGS CLEAR     65  62  93 CALM      30.04S
HOUGHTON LAKE  CLEAR     65  61  87 CALM      30.07S
6HR MIN TEMP:  63; 6HR MAX TEMP:  88;

MANISTEE       CLEAR     61  55  82 CALM      30.04F
OSCODA         CLEAR     64  64  97 N3        30.04S
PELLSTON       CLEAR     61  59  93 CALM      30.05S
6HR MIN TEMP:  60; 6HR MAX TEMP:  85;

TRAVERSE CITY  CLEAR     66  61  84 CALM      30.03F
6HR MIN TEMP:  66; 6HR MAX TEMP:  83;

$$
MIZ007>008-015-280700-
EASTERN UPPER MICHIGAN

CITY           SKY/WX    TMP DP  RH WIND       PRES   REMARKS
KINROSS        CLEAR     70  63  78 SW6       30.03S
6HR MIN TEMP:  70; 6HR MAX TEMP:  84;

MACKINAC ISLAN CLEAR     70  61  73 SW7       30.03F
$$
MIZ004>006-011>014-085-280700-
CENTRAL UPPER MICHIGAN

CITY           SKY/WX    TMP DP  RH WIND       PRES   REMARKS
MANISTIQUE     CLEAR     59  57  94 CALM      30.02R
ESCANABA       CLEAR     61  57  88 CALM      30.02R
6HR MIN TEMP:  61; 6HR MAX TEMP:  81;

MENOMINEE      CLEAR     64  61  88 CALM      30.02S VSB 1
6HR MIN TEMP:  63; 6HR MAX TEMP:  82;

SAWYER-GWINN   CLEAR     68  60  75 S5        30.04S
6HR MIN TEMP:  66; 6HR MAX TEMP:  87;

$$
MIZ001>003-009>011-084-280700-
WESTERN UPPER MICHIGAN

CITY           SKY/WX    TMP DP  RH WIND       PRES   REMARKS
IRON MOUNTAIN  CLEAR     63  60  90 CALM      30.03S
6HR MIN TEMP:  63; 6HR MAX TEMP:  85;

HOUGHTON       CLEAR     65  62  90 CALM      30.00R
6HR MIN TEMP:  65; 6HR MAX TEMP:  81;

COPPER HARBOR    N/A     70  62  76 W8        29.98R
6HR MIN TEMP:  68; 6HR MAX TEMP:  78;

IRONWOOD       CLEAR     73  63  68 S7        29.97F
6HR MIN TEMP:  68; 6HR MAX TEMP:  84;

$$

ABBREVIATIONS USED IN REMARKS
   TC - TEMPERATURE IN CELSIUS
  WCI - WIND CHILL INDEX
   HX - HEAT INDEX
  VSB - VISIBILITY



USA.gov is the U.S. government's official web portal to all federal, state and local government web resources and services.